Location: Ch�tillon
(48.8024°N, 2.2935°E)
Time: 18:03:09
(UTC+00:00)

Daily predictions for brighter satellites

Satellite Brightness Start Highest point End
(mag) Time Altitude Azimuth Time Altitude Azimuth Time Altitude Azimuth
Cosmos 1833 Rocket 2.7 20:07:09 10° SSW 20:12:41 63° ESE 20:18:17 10° NNE
ATLAS 3B R/B 3.2 20:10:27 10° NW 20:17:23 57° NE 20:24:34 10° ESE
CENTAUR R/B 4.4 20:10:08 10° NW 20:17:37 39° WSW 20:25:38 10° S
OPS 8737 4.5 20:14:43 10° NW 20:17:46 77° SW 20:21:38 10° SE
USA 245 4.5 20:13:35 10° SE 20:18:44 44° ENE 20:23:02 10° N
USA 267 4.4 20:14:58 10° E 20:19:25 19° ESE 20:23:50 10° SSE
NOSS 7 (E) 4.4 20:17:48 10° SSW 20:21:39 65° SE 20:24:47 10° NE
Cosmos 2360 Rocket 4.4 20:20:38 10° N 20:23:48 15° NNE 20:26:58 10° ENE
ERS-1 Rocket 4.1 20:21:20 10° ESE 20:25:40 30° ENE 20:30:01 10° N
BREEZE-M DEB (TANK) 3.9 20:22:53 10° SSW 20:26:21 36° SE 20:36:19 10° ENE
Gbstr 26 Del rocket 3.3 20:23:49 10° WNW 20:27:28 54° N 20:31:22 10° E
Spot 2 Rocket 4.1 20:24:07 10° SE 20:28:56 44° ENE 20:33:47 10° N
Cosmos 1437 3.3 20:28:17 10° NNW 20:30:57 45° W 20:33:37 10° S
Cosmos 1606 2.7 20:28:13 10° N 20:31:59 66° E 20:35:44 10° SSE
ARIANE 5 R/B 3.4 20:31:36 10° SE 20:35:47 39° ENE 20:39:56 10° N
Cosmos 2221 2.6 20:31:50 10° NNW 20:36:08 81° W 20:40:26 10° S
BREEZE-M DEB (TANK) 3.4 20:33:34 10° W 20:36:36 72° SSW 20:45:23 10° ESE
Cosmos 2369 3.8 20:31:13 10° NNW 20:36:54 85° WSW 20:42:34 10° SSE
OBJECT-B 3.8 20:36:53 10° WSW 20:38:21 13° W 20:39:49 10° WNW
COSMOS 2406 3.3 20:34:18 10° SSW 20:39:59 90° ESE 20:45:44 10° NNE
Cosmos 44 Rocket 3.4 20:38:11 10° SSW 20:43:19 67° ESE 20:48:33 10° NE
CARTOSAT-1 3.9 20:39:55 11° SSE 20:43:59 52° ENE 20:48:11 10° N
Cosmos 1980 Rocket 2.2 20:40:38 10° NNW 20:46:18 85° ENE 20:51:34 12° SSE
CZ-2C R/B 3.8 20:43:45 10° NNE 20:48:17 60° ESE 20:52:43 10° S
Cosmos 2098 Rocket 2.3 20:46:13 10° S 20:49:07 58° E 20:52:25 10° NNE
IGS 5A 4.4 20:46:52 10° S 20:50:51 45° W 20:54:52 10° NNW
Cosmos 1782 4.2 20:48:45 10° NNE 20:52:07 25° ENE 20:54:42 14° ESE
BREEZE-M DEB (TANK) 3.2 20:41:32 10° W 20:52:10 86° N 20:55:25 10° E
Cosmos 2322 Rocket 3.5 20:49:09 10° NNW 20:54:03 29° NE 20:58:55 10° ESE
USA 234 4.0 20:49:07 10° E 20:55:25 53° NNE 21:01:45 10° WNW
Cosmos 1825 4.2 20:52:36 10° SW 20:55:56 30° WNW 20:59:19 10° N
SPOT 5 3.0 20:55:38 15° SE 20:59:04 50° ENE 21:03:17 10° N
SPOT 1/Viking Rocket 3.8 20:55:48 10° S 21:00:58 71° WSW 21:06:12 10° NNW
Cosmos 1092 Rocket 4.3 20:55:38 10° SSE 21:01:37 52° E 21:07:43 10° NNE
Cosmos 371 Rocket 3.3 21:01:43 10° NNW 21:06:34 87° ENE 21:10:21 16° SSE
Cosmos 2151 3.0 21:05:39 11° S 21:09:36 62° E 21:13:49 10° NNE
ISS -3.7 21:07:04 10° WNW 21:10:28 78° NNE 21:12:58 17° ESE
Terra 2.1 21:12:28 18° SE 21:15:50 55° ENE 21:20:31 10° N
USA 276 2.3 21:14:42 10° W 21:17:52 72° N 21:20:24 15° E
Cosmos 2026 Rocket 4.2 21:14:18 13° SSE 21:19:54 57° E 21:26:03 10° NNE
SL-16 R/B 2.7 21:14:27 10° NNW 21:20:00 51° NE 21:24:03 18° SE
Cosmos 2219 Rocket 4.4 21:17:06 10° N 21:20:29 16° NE 21:23:52 10° ENE
Cosmos 1633 3.5 21:18:33 10° SSW 21:22:02 47° WNW 21:25:33 10° N
GP-B 3.1 21:19:02 10° N 21:23:30 75° E 21:26:47 18° S
Nadezhda 4 Rocket 4.3 21:20:24 10° SSW 21:26:31 68° WNW 21:32:45 10° N
Cosmos 1271 Rocket 2.8 21:23:13 10° N 21:27:12 73° ENE 21:29:29 24° SSE
Cosmos 1151 Rocket 3.5 21:23:23 10° N 21:27:37 47° ENE 21:29:57 24° SE
Cosmos 1076 Rocket 4.4 21:25:28 10° SSW 21:29:40 49° WNW 21:33:55 10° N
Meteor 2-19 Rocket 4.5 21:27:40 10° S 21:33:45 85° W 21:39:50 10° N
RESURS DK-1 2.9 21:32:15 10° SW 21:36:21 60° WNW 21:40:30 10° NNE
ERBS 4.1 21:34:52 10° W 21:37:12 18° SW 21:38:12 16° SSW
H-2A R/B 4.0 21:35:09 10° NNE 21:39:06 39° E 21:40:45 27° SE
Cosmos 2056 Rocket 4.4 21:35:30 10° NNW 21:40:35 40° ENE 21:43:49 20° ESE
Cosmos 332 Rocket 3.9 21:37:19 10° NNW 21:42:13 75° WSW 21:45:08 24° SSE
Okean 3 Rocket 3.9 21:41:09 26° SSE 21:43:20 50° E 21:47:41 10° NNE
Resurs 01 Rocket 4.2 21:42:46 10° SW 21:45:25 15° W 21:48:04 10° NW
Meteor 1-26 Rocket 4.4 21:40:28 10° NNW 21:46:29 78° W 21:50:37 20° S
Cosmos 1933 4.0 21:44:24 10° NNW 21:48:20 50° W 21:50:54 20° SSW
Cosmos 1428 Rocket 4.5 21:46:12 13° S 21:51:42 86° W 21:57:53 10° N
ATLAS 2AS CENTAUR R/B 3.7 21:45:43 10° WSW 21:53:31 59° NW 22:01:05 10° NE
Cosmos 2082 Rocket 3.2 21:49:13 10° SW 21:54:39 48° NW 22:00:10 10° NNE
Cosmos 1553 Rocket 3.9 21:50:13 10° N 21:56:19 74° E 21:59:54 26° SSE
ATLAS 5 CENTAUR R/B 4.2 21:54:44 10° NNW 21:58:40 22° NNE 22:03:08 10° ENE
Cosmos 1371 Rocket 4.3 21:56:26 10° NNW 22:01:46 62° ENE 22:04:31 28° SE
CZ-4B DEB 4.5 22:02:01 41° SSW 22:02:53 60° WSW 22:06:01 10° NNW
USA 267 3.2 21:56:48 10° ENE 22:03:18 63° SE 22:09:48 10° SW
CZ-3B R/B 3.6 21:49:49 10° WNW 22:03:39 60° N 22:07:16 12° E
ERS-1 Rocket 3.9 22:00:49 17° SSW 22:04:19 42° W 22:09:07 10° NNW
Cosmos 2112 Rocket 4.2 22:02:04 28° SSE 22:04:35 51° ESE 22:09:42 10° NNE
SL-27 R/B 4.1 22:05:12 21° E 22:05:12 21° E 22:07:32 10° NE
Cosmos 1655 Rocket 4.5 22:02:10 26° SE 22:05:19 46° E 22:11:22 10° NNE
Cosmos 2333 Rocket 3.6 22:00:26 10° NNW 22:05:25 31° NE 22:09:26 14° ESE
Cosmos 1680 Rocket 3.5 22:03:27 26° S 22:06:23 61° ESE 22:11:36 10° NNE
ATLAS 3B R/B 3.5 22:01:22 10° NW 22:08:02 44° WSW 22:12:25 22° S
Cosmos 2360 Rocket 2.6 22:03:35 10° NNW 22:09:08 55° ENE 22:12:12 26° SE
ARIANE 5 R/B 4.4 22:09:07 13° SSW 22:12:19 26° W 22:16:07 10° NW
Cosmos 2228 Rocket 4.4 22:09:34 10° NNE 22:13:22 27° ENE 22:14:49 23° ESE
Gbstr 26 Del rocket 2.7 22:10:34 10° WNW 22:14:22 71° SSW 22:15:40 41° SE
Cosmos 1408 Rocket 3.7 22:13:14 38° SSE 22:14:35 55° E 22:18:51 10° NNE
Cosmos 1812 2.7 22:14:58 10° NNW 22:18:51 76° W 22:19:58 44° S
Cosmos 292 Rocket 4.4 22:15:05 10° NNW 22:19:41 46° ENE 22:21:42 29° ESE
Cosmos 1862 3.2 22:19:39 45° S 22:20:47 75° E 22:24:47 10° NNE
Cosmos 220 Rocket 3.9 22:17:58 10° NNW 22:22:18 86° WSW 22:23:42 43° SSE
Cosmos 1417 Rocket 4.5 22:16:31 10° N 22:22:54 86° W 22:26:18 30° S
S3M 4.0 22:17:44 10° N 22:24:10 81° E 22:27:28 31° SSE
Meteor 2-14 Rocket 4.4 22:22:18 24° S 22:26:11 87° W 22:32:23 10° N
Cosmos 1782 4.3 22:24:52 10° NNW 22:28:27 31° W 22:30:17 21° SW
Cosmos 1980 Rocket 4.3 22:26:05 10° WNW 22:29:32 17° W 22:32:59 10° SW
BREEZE-M DEB (TANK) 4.2 22:31:24 10° W 22:31:50 15° W 22:31:50 15° W
Spot 4 4.0 22:32:44 38° SE 22:34:27 66° ENE 22:39:14 10° N
Cosmos 1515 Rocket 3.5 22:30:10 10° N 22:34:39 83° W 22:36:00 44° S
Cosmos 2237 Rocket 4.5 22:32:17 10° N 22:36:08 18° NE 22:39:57 10° E
USA 234 3.2 22:34:19 26° SE 22:38:15 80° SW 22:44:51 10° WNW
Cosmos 2322 Rocket 2.4 22:32:56 10° NW 22:38:30 60° WSW 22:40:46 35° S
Cosmos 1624 Rocket 4.0 22:38:30 10° NNW 22:43:41 70° WSW 22:45:32 40° S
ISS -1.9 22:44:09 10° W 22:45:55 22° WSW 22:45:55 22° WSW
ALOS 2 3.0 22:47:37 39° ESE 22:48:49 52° ENE 22:53:05 10° N
Terra 3.8 22:51:21 14° SW 22:53:55 21° W 22:57:29 10° NW
USA 276 3.7 22:50:58 10° W 22:52:37 26° W 22:52:37 26° W
Cosmos 1420 Rocket 4.0 22:52:46 10° NNW 22:58:08 79° WSW 22:59:52 44° S
Cosmos 2084 3.3 22:58:26 58° SE 22:58:26 58° SE 23:02:34 10° NE
COBE Rocket 3.9 22:59:09 44° SSW 23:00:27 64° W 23:05:07 10° NNW
Cosmos 2333 4.2 22:56:47 10° NNW 23:02:26 78° ENE 23:04:36 39° SE
COSMOS 2428 3.3 22:57:40 10° NNW 23:03:15 50° NE 23:06:09 27° ESE
SL-16 R/B 3.4 22:58:58 10° NW 23:03:52 31° WSW 23:05:54 24° SW
Cosmos 2219 Rocket 2.5 23:00:06 10° NNW 23:05:41 61° ENE 23:08:07 33° SE
Meteor 1-27 Rocket 3.7 23:01:24 10° NNW 23:07:00 77° W 23:09:04 41° S
Cosmos 1452 Rocket 3.5 23:08:23 10° NNW 23:13:40 76° ENE 23:15:22 44° SE
NOSS 3-1 (C) 4.0 23:12:14 10° NW 23:19:39 89° SW 23:24:41 28° SE
Cosmos 1805 Rocket 3.5 23:19:21 60° S 23:20:08 82° E 23:24:37 10° NNE
NOSS 2-1 (E) 2.9 23:20:53 75° N 23:20:53 75° N 23:24:13 10° NE
Cosmos 2285 Rocket 3.9 23:17:37 10° NNW 23:23:59 85° ENE 23:26:32 39° SSE
Cosmos 1174 4.4 23:24:54 10° NW 23:26:54 35° WNW 23:26:54 35° WNW
Cosmos 2315 Rocket 4.2 23:22:02 10° NNW 23:28:15 65° W 23:30:48 37° SSW
Cosmos 1515 3.6 23:24:40 10° N 23:28:27 74° E 23:28:34 73° E
Geosat 4.3 23:27:37 33° ESE 23:29:43 60° NE 23:34:41 10° NNW
USA 229 DEB 4.0 23:24:18 10° NW 23:31:35 76° NE 23:36:51 22° SE
USA 229 4.0 23:24:23 10° NW 23:31:41 75° NE 23:36:59 22° SE
Cosmos 1500 Rocket 4.4 23:30:46 34° WSW 23:32:05 44° WNW 23:36:20 10° N
USA 40 PKM 4.3 23:33:29 10° NW 23:37:04 84° NE 23:37:43 59° ESE
Meteor 1-20 Rocket 4.1 23:37:01 46° S 23:38:47 86° E 23:44:28 10° NNE
SL-27 R/B 4.0 23:38:40 27° W 23:39:36 31° WNW 23:42:53 10° N
COSMOS 2455 2.8 23:38:43 44° S 23:40:36 67° ESE 23:46:35 10° NE
PSLV R/B 4.4 23:38:23 10° NNE 23:42:55 42° E 23:43:41 39° ESE
SL-08 ROCKET BODY 4.5 23:41:23 42° SSE 23:43:26 68° E 23:49:30 10° NNE
COSMOS 2487 2.6 23:44:23 67° NNE 23:44:23 67° NNE 23:47:23 10° NNE
ATLAS 5 CENTAUR R/B 2.6 23:38:54 10° NW 23:44:14 61° NE 23:48:42 20° ESE
Cosmos 1110 Rocket 4.1 23:39:21 10° NNW 23:44:43 74° ENE 23:46:28 43° SE
USA 267 3.8 23:39:55 10° NE 23:46:20 60° NNW 23:52:44 10° W
Meteor 1-18 Rocket 4.3 23:40:45 10° N 23:46:41 76° ENE 23:48:44 42° SSE
Cosmos 2333 Rocket 2.4 23:44:30 10° NW 23:50:02 57° WSW 23:51:25 45° SSW
Cosmos 2228 Rocket 4.1 23:47:38 10° NNW 23:51:36 33° W 23:52:18 32° WSW
Resurs 1-4 Rocket 4.4 23:50:18 10° ENE 23:51:52 11° E 23:53:25 10° ESE
Cosmos 2360 Rocket 3.3 23:48:07 10° NW 23:52:48 28° WSW 23:53:56 26° WSW
Nimbus 7 Rocket 4.4 23:47:26 10° NNE 23:53:31 90° NW 23:55:47 41° SSW
Okean 1 3.2 23:49:55 10° NNW 23:53:58 79° W 23:54:11 75° SW
Cosmos 1331 Rocket 4.0 23:48:46 10° NNW 23:54:04 80° ENE 23:55:40 46° SE
Cosmos 1666 3.8 23:54:41 34° E 23:54:43 34° E 23:58:14 10° NNE
